Location: Grasslands National Park East Block
(49.0708°N, 106.5295°W)
Time: 10:20:02
(UTC-06:00)

Max Valier Satellite - Pass Details

Date: 01 October 2019
Orbit: 490 x 508 km, 97.3° (Epoch: 19 October)

Event Time Altitude Azimuth Distance (km) Brightness Sun altitude
Exits shadow 20:54:18 14° 25° (NNE) 1,499 ? -21.6°
Drops below altitude 10° 20:55:05 10° 16° (NNE) 1,733 ? -21.8°
Sets 20:57:32 0° 360° (N) 2,621 ? -22.1°
